Regional Weather Roundup
Issued by NWS Portland, ME

Current Version | Previous Version | Text Only | Print | Product List | Glossary On
Versions: 1 2 3 4 5 6 7 8 9 10 11 12 13 14 15 16 17 18 19 20 21 22 23 24 25 26 27 28 29 30 31 32 33 34 35 36 37 38 39 40 41 42 43 44 45 46 47 48 49 50
000
ASUS41 KGYX 050510
RWRGYX
WEATHER ROUNDUP FOR MAINE AND NEW HAMPSHIRE
NATIONAL WEATHER SERVICE GRAY ME
100 AM EDT SAT SEP 05 2015

MEZ002-005-006-010-012-015-018-020-021-024-026-027-029-050600-
MAINE

CITY           SKY/WX    TMP DP  RH WIND       PRES   REMARKS
PORTLAND       CLEAR     53  51  93 W3        30.27S
SANFORD        CLEAR     46  41  81 CALM      30.27S
BAR HARBOR     CLEAR     50  50 100 CALM      30.25F
WISCASSET      CLEAR     50  48  93 CALM      30.28S
ROCKLAND       CLEAR     50  48  93 W3        30.24F
FRYEBURG       CLEAR     54  54 100 CALM      30.28R
LEWISTONAUBURN CLEAR     48 N/A N/A CALM      30.27R
AUGUSTA        CLEAR     57  52  83 CALM      30.26S
BANGOR         CLEAR     52  51  97 CALM      30.25S
GREENVILLE       N/A     54  46  74 CALM      30.25S
MILLINOCKET    CLEAR     51  49  92 CALM      30.26S
HOULTON        CLEAR     44  42  93 CALM      30.23S
PRESQUE ISLE   PTCLDY    45  41  87 CALM      30.24S VSB 1
FRENCHVILLE    CLEAR     53  44  71 W3        30.23F
CARIBOU        PTCLDY    49  45  86 S3        30.23S
$$

NHZ002-005-008-009-011-012-014-050600-
NEW HAMPSHIRE

CITY           SKY/WX    TMP DP  RH WIND       PRES   REMARKS
PORTSMOUTH     CLEAR     55  53  92 NW3       30.25F
ROCHESTER      CLEAR     53  50  89 NW6       30.26F
NASHUA         CLEAR     55  51  86 W5        30.28S
MANCHESTER     CLEAR     58  49  72 CALM      30.26S
CONCORD        CLEAR     53  50  89 CALM      30.28S
LACONIA        CLEAR     57  52  82 CALM      30.27S
PLYMOUTH       FAIR      53  52  97 CALM      30.28R
BERLIN         MOCLDY    47  45  93 CALM      30.29R
WHITEFIELD     CLEAR     51  49  92 CALM      30.27S
JAFFREY        CLEAR     52  50  93 CALM      30.29S
KEENE          CLEAR     54  48  82 S3        30.28F
LEBANON        CLEAR     55  53  93 S7        30.25F
MT WASHINGTON  CLEAR     54  41  62 N16         N/A
$$

VTZ005-007-008-050600-
VERMONT

CITY           SKY/WX    TMP DP  RH WIND       PRES   REMARKS
ST JOHNSBURY     N/A     57  54  89 MISG      30.25S
BURLINGTON     CLEAR     60  56  86 CALM      30.21F
$$

MAZ007-012-024-CTZ003-RIZ002-NYZ038-NYZ072-050600-
SOUTHERN NEW ENGLAND AND NY

CITY           SKY/WX    TMP DP  RH WIND       PRES   REMARKS
BOSTON         CLEAR     62  57  83 N5        30.26S
WORCESTER      CLEAR     58  52  80 N6        30.28S
NANTUCKET        N/A    N/A N/A N/A MISG        N/A
PROVIDENCE     CLEAR     60  58  92 NE6       30.25F
HARTFORD       PTCLDY    63  54  72 N3        30.25S
ALBANY         PTCLDY    66  58  75 CALM      30.23R
NEW YORK CITY  PTCLDY    71  62  73 E9        30.22R
$$

ANZ081-ANZ082-ANZ150-NHZ014-MEZ023>029-050600-
COASTAL MARINE OBSERVATIONS

STATION/POSITION TIME  TEMP    WIND        PRES    WAVE
                       AIR SEA DIR/SP/G            HT/PER
                 (UTC) (F)     (DEG/KT/KT) (MB)    (FT/S)
MOUNT DESERT ROC 0500   58     290/  5/  5 1024.6F
MATINICUS ROCK   0400          290/  5/  6 1024.4S
ISLE OF SHOALS   0400   63     320/  3/  3 1024.6R
JEFFREYS LEDGE   0403      63                N/A     3/ 6
CASHES LEDGE BUO 0450   62                 1024.4F   3/ 6
GEORGES BANK BUO 0450   67 73   30/ 17/ 19 1020.6F   5/ 7
$$

.............KEY..............
   WCI - WIND CHILL
   TC  - TEMPERATURE IN CELSIUS
   VSB - VISIBILITY IN MILES
   HX  - HEAT INDEX
   FAIR- INDICATES FEW OR NO CLOUDS BELOW 12,000 FT, WITH NO
         SIGNIFICANT WEATHER AND/OR OBSTRUCTIONS TO VISIBILITY.





USA.gov is the U.S. government's official web portal to all federal, state and local government web resources and services.